User: anonymous   Login
Location: Unspecified
(0.0000°N, 0.0000°E)
Time: 03:32:20
(UTC+00:00)
Language:

Kosmos-1333 - Orbit

View from above orbital plane
View from above orbital plane
View from above satellite
View from above satellite

Ground track
Ground track

The orbit data is extracted from the following two-line orbital elements,

1 13033U 82003A   17173.86021175 +.00000014 +00000-0 -13254-5 0  9998
2 13033 082.9426 069.1661 0031448 318.4821 094.2649 13.73195535775813
Epoch (UTC): 22 June 2017 20:38:42
Eccentricity: 0.0031448
inclination: 82.9426°
perigee height: 965 km
apogee height: 1011 km
right ascension of ascending node: 69.1661°
argument of perigee: 318.4821°
revolutions per day: 13.73195535
mean anomaly at epoch: 94.2649°
orbit number at epoch: 77581

The dashed part of the orbit path shows where the satellite is in the earth's shadow,  

DLR